Regional Weather Roundup
Issued by NWS Bismarck, ND

Home | Current Version | Previous Version | Text Only | Print | Product List | Glossary On
Versions: 1 2 3 4 5 6 7 8 9 10 11 12 13 14 15 16 17 18 19 20 21 22 23 24 25 26 27 28 29 30 31 32 33 34 35 36 37 38 39 40 41 42 43 44 45 46 47 48 49 50
483
ASUS43 KBIS 221520
RWRBIS

NWR BROADCAST TEXT
NATIONAL WEATHER SERVICE BISMARCK ND
1000 AM CDT FRI MAY 22 2015

NOTE: "FAIR" INDICATES FEW OR NO CLOUDS BELOW 12,000 FEET WITH NO
SIGNIFICANT WEATHER AND/OR OBSTRUCTIONS TO VISIBILITY.


CITY           SKY/WX    TMP DP  RH WIND       PRES   REMARKS
WILLISTON      SUNNY     63  41  44 CALM      30.13F
MINOT          SUNNY     69  37  30 SE8       30.13S
MINOT AFB      SUNNY     70  40  34 SE7       30.12F
BISMARCK       SUNNY     62  45  53 CALM      30.16S
DICKINSON      SUNNY     63  33  32 SE14      30.12S
GARRISON         N/A     60  39  45 S5        30.15S
HETTINGER ARPT PTSUNNY   60  39  45 SE12      30.14S
JAMESTOWN      SUNNY     63  41  44 S10       30.18R
BEACH          FAIR      61  34  36 SE18      30.11F
CARRINGTON     FAIR      64  45  48 S9        30.18S
CROSBY         FAIR      64  36  34 SW5       30.14S
HARVEY         FAIR      66  37  34 S8        30.16S
HAZEN          FAIR      63  43  48 CALM      30.16S
LINTON         FAIR      64  45  48 SE7       30.17S
MANDAN         FAIR      63  39  42 SE3       30.17S
OAKES            N/A     64  43  45 E8        30.19S
STANLEY        FAIR      68  36  30 CALM      30.15S
TIOGA          FAIR      66  34  30 CALM      30.17S
WATFORD CITY   FAIR      64  32  29 E8        30.11F
$$

CITY           SKY/WX    TMP DP  RH WIND       PRES   REMARKS
GRAND FORKS    SUNNY     65  36  34 S9        30.17F
GRAND FORKS AF SUNNY     66  37  34 SW9       30.18S
DEVILS LAKE    SUNNY     64  39  39 SW9       30.16S
FARGO          SUNNY     65  40  39 CALM      30.19S
CANDO          FAIR      66  37  34 SW6       30.17S
CAVALIER       FAIR      68  39  34 SW7       30.14F
GRAFTON        FAIR      64  45  48 SW9       30.17F
LANGDON        FAIR      68  39  34 SW12      30.16F
ROLLA          FAIR      68  32  26 SW10      30.16S
WALHALLA       FAIR      70  37  30 W7        30.15R
$$

CITY           SKY/WX    TMP DP  RH WIND       PRES   REMARKS
ABERDEEN       SUNNY     65  42  43 SE7       30.18S
MOBRIDGE       MOSUNNY   65  41  41 E6        30.14S
BUFFALO          N/A     61  43  51 SE18      30.02F
RAPID CITY     CLOUDY    55  46  71 SE13      30.10F
GLASGOW        SUNNY     61  34  36 SE17      30.05F
SIDNEY         SUNNY     64  41  42 E6        30.11F
WOLF POINT     SUNNY     61  39  44 E10       30.08F
GLENDIVE       SUNNY     63  37  39 E14       30.08F
MILES CITY     CLOUDY    58  41  53 SE10      30.02F
BAKER          PTSUNNY   60  41  49 SE18      30.09F
$$

CITY           SKY/WX    TMP DP  RH WIND       PRES   REMARKS
BILLINGS       PTSUNNY   53  44  71 VRB3      29.96F
GREAT FALLS    SUNNY     55  42  61 CALM      29.96F
REGINA         SUNNY     63  41  45 VRB2      30.12F
ESTEVAN        SUNNY     66  39  37 SW3       30.14R
$$




USA.gov is the U.S. government's official web portal to all federal, state and local government web resources and services.